When you browse on this site, cookies collect data to enhance your experience and personalize the content and advertising you see.
Visit our Privacy Policy to learn more. By continuing to use the site, you agree to this use of cookies and data.

Météo par heure à La-Plata

Ce jour, 9 Juillet, Jeudi

Heure Température Précipitation Vent Pression Humidité
00:00 +5°C° 0 mm 3 m/s 763 mmHg 79%
01:00 +5°C° 0 mm 3 m/s 763 mmHg 81%
02:00 +5°C° 0 mm 4 m/s 763 mmHg 83%
03:00 +4°C° 0 mm 4 m/s 763 mmHg 84%
04:00 +4°C° 0 mm 4 m/s 762 mmHg 85%
05:00 +4°C° 0 mm 4 m/s 762 mmHg 86%
06:00 +4°C° 0 mm 4 m/s 763 mmHg 83%
07:00 +3°C° 0 mm 5 m/s 763 mmHg 80%
08:00 +5°C° 0 mm 5 m/s 763 mmHg 77%
09:00 +6°C° 0 mm 5 m/s 763 mmHg 71%
10:00 +7°C° 0 mm 5 m/s 763 mmHg 65%
11:00 +9°C° 0 mm 5 m/s 763 mmHg 59%
12:00 +10°C° 0 mm 5 m/s 763 mmHg 55%
13:00 +10°C° 0 mm 5 m/s 762 mmHg 51%
14:00 +12°C° 0 mm 5 m/s 762 mmHg 47%
15:00 +11°C° 0 mm 4 m/s 761 mmHg 51%
16:00 +10°C° 0 mm 4 m/s 761 mmHg 55%
17:00 +9°C° 0 mm 3 m/s 760 mmHg 59%
18:00 +8°C° 0 mm 4 m/s 760 mmHg 61%
19:00 +8°C° 0 mm 4 m/s 760 mmHg 62%
20:00 +8°C° 0 mm 5 m/s 760 mmHg 64%
21:00 +8°C° 0 mm 5 m/s 760 mmHg 66%
22:00 +8°C° 0 mm 6 m/s 760 mmHg 68%
23:00 +8°C° 0 mm 6 m/s 760 mmHg 70%

Demain, 10 Juillet, Vendredi

Heure Température Précipitation Vent Pression Humidité
00:00 +8°C° 0 mm 6 m/s 759 mmHg 72%
01:00 +8°C° 0 mm 6 m/s 759 mmHg 74%
02:00 +8°C° 0 mm 6 m/s 759 mmHg 75%
03:00 +8°C° 0 mm 6 m/s 758 mmHg 76%
04:00 +8°C° 0 mm 6 m/s 758 mmHg 77%
05:00 +8°C° 0 mm 6 m/s 757 mmHg 78%
06:00 +8°C° 0 mm 6 m/s 758 mmHg 77%
07:00 +8°C° 0 mm 6 m/s 758 mmHg 77%
08:00 +8°C° 0 mm 6 m/s 758 mmHg 76%
09:00 +9°C° 0 mm 7 m/s 757 mmHg 72%
10:00 +10°C° 0 mm 7 m/s 757 mmHg 68%
11:00 +11°C° 0 mm 8 m/s 757 mmHg 64%
12:00 +12°C° 0 mm 7 m/s 757 mmHg 64%
13:00 +14°C° 0 mm 7 m/s 757 mmHg 63%
14:00 +14°C° 0 mm 6 m/s 757 mmHg 62%
15:00 +14°C° 0 mm 6 m/s 757 mmHg 65%
16:00 +13°C° 0 mm 5 m/s 757 mmHg 67%
17:00 +12°C° 0 mm 4 m/s 757 mmHg 70%
18:00 +10°C° 0 mm 5 m/s 758 mmHg 68%
19:00 +10°C° 0 mm 5 m/s 759 mmHg 66%
20:00 +9°C° 0 mm 5 m/s 759 mmHg 64%
21:00 +8°C° 0 mm 5 m/s 760 mmHg 65%
22:00 +7°C° 0 mm 5 m/s 761 mmHg 67%
23:00 +6°C° 0 mm 5 m/s 761 mmHg 69%

Après-demain, 11 Juillet, Samedi

Heure Température Précipitation Vent Pression Humidité
00:00 +5°C° 0 mm 4 m/s 761 mmHg 71%
01:00 +4°C° 0 mm 4 m/s 761 mmHg 72%
02:00 +4°C° 0 mm 4 m/s 762 mmHg 74%
03:00 +4°C° 0 mm 4 m/s 761 mmHg 72%
04:00 +3°C° 0 mm 3 m/s 761 mmHg 70%
05:00 +3°C° 0 mm 3 m/s 761 mmHg 68%
06:00 +3°C° 0 mm 3 m/s 761 mmHg 68%
07:00 +3°C° 0 mm 3 m/s 762 mmHg 68%
08:00 +5°C° 0 mm 2 m/s 762 mmHg 68%
09:00 +5°C° 0 mm 3 m/s 762 mmHg 60%
10:00 +8°C° 0 mm 3 m/s 761 mmHg 52%
11:00 +10°C° 0 mm 3 m/s 761 mmHg 44%
12:00 +11°C° 0 mm 4 m/s 761 mmHg 42%
13:00 +12°C° 0 mm 4 m/s 760 mmHg 40%
14:00 +12°C° 0 mm 4 m/s 759 mmHg 39%
15:00 +11°C° 0 mm 3 m/s 759 mmHg 42%
16:00 +10°C° 0 mm 3 m/s 759 mmHg 46%
17:00 +9°C° 0 mm 3 m/s 758 mmHg 49%
18:00 +9°C° 0 mm 3 m/s 758 mmHg 50%
19:00 +9°C° 0 mm 2 m/s 759 mmHg 51%
20:00 +9°C° 0 mm 2 m/s 759 mmHg 53%
21:00 +8°C° 0 mm 2 m/s 758 mmHg 54%
22:00 +8°C° 0 mm 3 m/s 758 mmHg 55%
23:00 +8°C° 0 mm 3 m/s 758 mmHg 57%

12 Juillet, Dimanche

Heure Température Précipitation Vent Pression Humidité
00:00 +7°C° 0 mm 4 m/s 757 mmHg 58%
01:00 +7°C° 0 mm 5 m/s 757 mmHg 58%
02:00 +7°C° 0 mm 5 m/s 757 mmHg 59%
03:00 +7°C° 0 mm 5 m/s 756 mmHg 60%
04:00 +7°C° 0 mm 5 m/s 756 mmHg 61%
05:00 +7°C° 0 mm 4 m/s 756 mmHg 62%
06:00 +7°C° 0 mm 4 m/s 756 mmHg 63%
07:00 +7°C° 0 mm 4 m/s 756 mmHg 64%
08:00 +7°C° 0 mm 4 m/s 757 mmHg 65%
09:00 +8°C° 0 mm 4 m/s 757 mmHg 62%
10:00 +10°C° 0 mm 4 m/s 757 mmHg 59%
11:00 +11°C° 0 mm 4 m/s 757 mmHg 55%
12:00 +11°C° 0 mm 4 m/s 756 mmHg 55%
13:00 +12°C° 0 mm 4 m/s 756 mmHg 55%
14:00 +12°C° 0 mm 3 m/s 756 mmHg 54%
15:00 +11°C° 0 mm 3 m/s 756 mmHg 58%
16:00 +10°C° 0 mm 3 m/s 756 mmHg 63%
17:00 +9°C° 0 mm 3 m/s 757 mmHg 67%
18:00 +9°C° 0 mm 3 m/s 757 mmHg 70%
19:00 +8°C° 0 mm 2 m/s 758 mmHg 72%
20:00 +8°C° 0 mm 2 m/s 758 mmHg 75%
21:00 +7°C° 0 mm 2 m/s 758 mmHg 77%
22:00 +7°C° 0 mm 2 m/s 758 mmHg 79%
23:00 +8°C° 0 mm 1 m/s 759 mmHg 81%

13 Juillet, Lundi

Heure Température Précipitation Vent Pression Humidité
00:00 +6°C° 0 mm 2 m/s 759 mmHg 81%
01:00 +6°C° 0 mm 2 m/s 759 mmHg 81%
02:00 +6°C° 0 mm 2 m/s 759 mmHg 81%
03:00 +6°C° 0 mm 2 m/s 759 mmHg 81%
04:00 +4°C° 0 mm 3 m/s 759 mmHg 81%
05:00 +4°C° 0 mm 3 m/s 760 mmHg 81%
06:00 +4°C° 0 mm 3 m/s 760 mmHg 79%
07:00 +4°C° 0 mm 3 m/s 761 mmHg 77%
08:00 +4°C° 0 mm 3 m/s 761 mmHg 76%
09:00 +6°C° 0 mm 4 m/s 761 mmHg 67%
10:00 +7°C° 0 mm 5 m/s 762 mmHg 58%
11:00 +9°C° 0 mm 5 m/s 762 mmHg 50%
12:00 +9°C° 0 mm 6 m/s 762 mmHg 48%
13:00 +9°C° 0 mm 6 m/s 762 mmHg 46%
14:00 +10°C° 0 mm 6 m/s 762 mmHg 43%
15:00 +8°C° 0 mm 6 m/s 762 mmHg 47%
16:00 +7°C° 0 mm 5 m/s 763 mmHg 50%
17:00 +6°C° 0 mm 5 m/s 763 mmHg 53%
18:00 +5°C° 0 mm 5 m/s 764 mmHg 54%
19:00 +4°C° 0 mm 4 m/s 764 mmHg 54%
20:00 +3°C° 0 mm 4 m/s 765 mmHg 54%
21:00 +3°C° 0 mm 4 m/s 765 mmHg 54%
22:00 +2°C° 0 mm 3 m/s 765 mmHg 54%
23:00 +2°C° 0 mm 3 m/s 766 mmHg 55%

14 Juillet, Mardi

Heure Température Précipitation Vent Pression Humidité
00:00 +1°C° 0 mm 3 m/s 766 mmHg 55%
01:00 +1°C° 0 mm 3 m/s 766 mmHg 56%
02:00 +1°C° 0 mm 3 m/s 766 mmHg 57%
03:00 0°C° 0 mm 3 m/s 766 mmHg 57%
04:00 0°C° 0 mm 3 m/s 766 mmHg 58%
05:00 0°C° 0 mm 3 m/s 766 mmHg 59%
06:00 0°C° 0 mm 3 m/s 766 mmHg 58%
07:00 0°C° 0 mm 3 m/s 767 mmHg 56%
08:00 +2°C° 0 mm 2 m/s 767 mmHg 55%
09:00 +3°C° 0 mm 3 m/s 767 mmHg 50%
10:00 +4°C° 0 mm 3 m/s 767 mmHg 45%
11:00 +7°C° 0 mm 3 m/s 768 mmHg 40%
12:00 +7°C° 0 mm 4 m/s 767 mmHg 40%
13:00 +8°C° 0 mm 4 m/s 767 mmHg 39%
14:00 +8°C° 0 mm 4 m/s 767 mmHg 38%
15:00 +8°C° 0 mm 3 m/s 767 mmHg 43%
16:00 +7°C° 0 mm 3 m/s 767 mmHg 48%
17:00 +6°C° 0 mm 2 m/s 767 mmHg 52%
18:00 +5°C° 0 mm 2 m/s 767 mmHg 54%
19:00 +4°C° 0 mm 2 m/s 767 mmHg 55%
20:00 +4°C° 0 mm 2 m/s 767 mmHg 57%
21:00 +3°C° 0 mm 2 m/s 768 mmHg 57%
22:00 +4°C° 0 mm 1 m/s 768 mmHg 57%
23:00 +4°C° 0 mm 1 m/s 768 mmHg 57%
Voir plus